Regional Weather Roundup
Issued by NWS Midland/Odessa, TX

Home | Current Version | Previous Version | Text Only | Print | Product List | Glossary On
Versions: 1 2 3 4 5 6 7 8 9 10 11 12 13 14 15 16 17 18 19 20 21 22 23 24 25 26 27 28 29 30 31 32 33 34 35 36 37 38 39 40 41 42 43 44 45 46 47 48 49 50
000
ASUS44 KMAF 051710
RWRMAF
MIDLAND AREA WEATHER ROUNDUP
NATIONAL WEATHER SERVICE MIDLAND TX
1200 PM CDT TUE MAY 05 2015

...IN SOUTHWEST TEXAS AND SOUTHEAST NEW MEXICO...

CITY           SKY/WX    TMP DP  RH WIND       PRES   REMARKS
ALPINE         MOSUNNY   73  36  26 W7        30.06S
ANDREWS        FAIR      68  61  78 S7        29.91F
ARTESIA        SUNNY     70  54  56 S9G16     29.92F
BIG SPRING     CLOUDY    61  58  90 N10       29.94S
CARLSBAD       MOSUNNY   71  54  54 VRB5      29.91S
DRYDEN           N/A     79  62  56 S6        29.89F
FORT STOCKTON  SUNNY     74  58  57 W10       29.94S
GUAD PASS      SUNNY     66  50  56 W17       30.03S
HOBBS          MOSUNNY   63  57  82 S6        29.94F
MARFA          MOSUNNY   72  36  26 W6G22     30.05S
MIDLAND AIRPK  MOSUNNY   71  62  73 CALM      29.91S
MIDLAND INTL   MOSUNNY   74  62  66 SW14      29.90S
ODESSA         MOSUNNY   74  59  59 SW13      29.91S
PECOS          SUNNY     77  50  38 SW12G17   29.92S
PRESIDIO       FAIR      81  36  20 W9        29.94F
SEMINOLE       SUNNY     67  59  75 SW5       29.93S
SNYDER         HVY RAIN  58  57  96 NE8       29.95F
WINK           SUNNY     74  54  49 W6        29.90S
$$
...OTHER STATIONS IN TEXAS...

CITY           SKY/WX    TMP DP  RH WIND       PRES   REMARKS
ABILENE        CLOUDY    73  61  65 S29G37    29.94S
AMARILLO       CLOUDY    61  54  77 CALM      29.88S
AUSTIN         CLOUDY    77  64  64 SE16      30.00S
BROWNSVILLE    CLOUDY    82  72  71 SE20      29.94R
CORPUS CHRISTI PTSUNNY   80  69  69 SE21G26   29.97S
DALLAS FTW     CLOUDY    73  64  73 SE16      30.03F
DEL RIO        CLOUDY    72  67  84 SE13G20   29.91R
EL PASO        MOSUNNY   71  37  28 SW20      29.97S
HOUSTON INT    PTSUNNY   77  71  82 SE17G23   30.04F
LUBBOCK        CLOUDY    62  57  83 S10G20    29.91R
SAN ANGELO     PTSUNNY   74  62  66 S22G32    29.92S
SAN ANTONIO    CLOUDY    78  64  61 SE17      29.99S
WACO           CLOUDY    75  62  64 SE17      30.03S
WICHITA FALLS  NOT AVBL
$$
...OTHER LOCATIONS IN NEW MEXICO...

CITY           SKY/WX    TMP DP  RH WIND       PRES   REMARKS
ALAMAGORDO     MOSUNNY   66  48  52 S12G22    29.97S
ALBUQUERQUE    PTSUNNY   58  40  51 SW17      29.96S
CANNON AFB     CLOUDY    62  53  72 SW15      29.92S
CLOVIS         PTSUNNY   63  52  67 SW16      29.92S
HOLLOMAN AFB   SUNNY     68  47  46 SW12G21   29.94F
ROSWELL        SUNNY     69  52  54 VRB7      29.90S
RUIDOSO        MOSUNNY   55  37  50 SW22      30.02F
SANTA FE       LGT RAIN  49  43  80 N3        29.97R
TRUTH OR CONSE PTSUNNY   66  37  34 S10       29.94F
TUCUMCARI      CLOUDY    62  52  69 W6        29.89S
$$


USA.gov is the U.S. government's official web portal to all federal, state and local government web resources and services.